Agia Marina, Greece

11:13 PM EEST on September 20, 2017 (GMT +0300)
Agia Marina

Weather History for 16667 - September, 2017

Change the Weather History Date:

Wednesday, September 13, 2017

  Actual Average Record
Temperature  
Mean Temperature 79 °F -  
Max Temperature 92 °F 76 °F - ()
Min Temperature 66 °F 62 °F - ()
Cooling Degree Days 14    
Growing Degree Days 29 (Base 50)    
Moisture  
Dew Point 64 °F    
Average Humidity 60    
Maximum Humidity 83    
Minimum Humidity 35    
Precipitation  
Precipitation 0.00 in 0.03 in - ()
Sea Level Pressure  
Sea Level Pressure 29.97 in    
Wind  
Wind Speed 2 mph ()    
Max Wind Speed 9 mph    
Max Gust Speed -    
Visibility 6.5 miles    
Events      
T = Trace of Precipitation, MM = Missing Value Source: Averaged Metar Reports

Daily Weather History Graph

Daily Weather History Graph

Search for Another Location

Airport or City:

Trip Planner

Search our weather history database for the weather conditions in past years. The results will help you decide how hot, cold, wet, or windy it might be!

Date:

Astronomy

Sep. 13, 2017 Rise Set
Actual Time 6:53 AM EEST 7:25 PM EEST
Civil Twilight 6:26 AM EEST 7:52 PM EEST
Nautical Twilight 5:54 AM EEST 8:23 PM EEST
Astronomical Twilight 5:22 AM EEST 8:56 PM EEST
Moon No Moon Rise 2:18 PM EEST (9/13)
Length of Visible Light 13h 25m
Length of Day
12h 32m
Waning Gibbous, 49% of the Moon is Illuminated
Sep 13
Waning Gibbous
Sep 20
New
Sep 28
First Quarter
Oct 5
Full
Oct 12
Last Quarter

Hourly Weather History & Observations

Time (EEST) Temp. Heat Index Dew Point Humidity Pressure Visibility Wind Dir Wind Speed Gust Speed Precip Events Conditions
4:50 AM 69.8 °F - 60.8 °F 73% 29.95 in - Calm Calm - N/A   Clear
5:20 AM 69.8 °F - 60.8 °F 73% 29.95 in - Calm Calm - N/A   Clear
5:50 AM 68.0 °F - 60.8 °F 78% 29.95 in - Calm Calm - N/A   Clear
6:00 AM 69 °F - 60 °F 66% 29.96 in 9 mi Calm Calm - -  
6:20 AM 68.0 °F - 60.8 °F 78% 29.95 in - Calm Calm - N/A   Clear
6:50 AM 68.0 °F - 60.8 °F 78% 29.95 in - Calm Calm - N/A   Clear
7:20 AM 68.0 °F - 60.8 °F 78% 29.95 in - Calm Calm - N/A   Clear
7:50 AM 68.0 °F - 62.6 °F 83% 29.98 in - Calm Calm - N/A   Clear
8:20 AM 69.8 °F - 64.4 °F 83% 29.98 in - Calm Calm - N/A   Clear
8:50 AM 71.6 °F - 66.2 °F 83% 29.98 in - Variable 3.5 mph - N/A   Clear
9:00 AM 72 °F - 65 °F 74% 29.99 in 6 mi North 3.5 mph - -  
9:20 AM 71.6 °F - 66.2 °F 83% 29.98 in - Variable 3.5 mph - N/A   Clear
9:50 AM 73.4 °F - 68.0 °F 83% 30.01 in - Variable 3.5 mph - N/A   Clear
10:20 AM 75.2 °F - 68.0 °F 78% 30.01 in - Calm Calm - N/A   Clear
10:50 AM 78.8 °F - 64.4 °F 61% 30.01 in - SE 9.2 mph - N/A   Clear
11:20 AM 78.8 °F - 64.4 °F 61% 30.01 in - SE 8.1 mph - N/A   Clear
11:50 AM 82.4 °F 83.9 °F 64.4 °F 54% 30.01 in - SE 8.1 mph - N/A   Clear
12:00 PM 82 °F - 64 °F 46% 30.01 in 7 mi SE 8.1 mph - -  
12:20 PM 82.4 °F 83.9 °F 64.4 °F 54% 29.98 in - SSE 8.1 mph - N/A   Clear
12:50 PM 86.0 °F 86.6 °F 62.6 °F 45% 29.98 in - SE 9.2 mph - N/A   Clear
1:20 PM 86.0 °F 86.6 °F 62.6 °F 45% 29.98 in - SE 5.8 mph - N/A   Clear
1:50 PM 89.6 °F 91.1 °F 64.4 °F 43% 29.98 in - ESE 4.6 mph - N/A   Clear
2:20 PM 89.6 °F 91.1 °F 64.4 °F 43% 29.98 in - SE 5.8 mph - N/A   Clear
2:50 PM 91.4 °F 94.0 °F 66.2 °F 43% 29.98 in - Variable 3.5 mph - N/A   Clear
3:00 PM 91 °F - 67 °F 35% 29.99 in 6 mi 3.5 mph - -  
3:20 PM 91.4 °F 94.0 °F 66.2 °F 43% 29.98 in - Variable 3.5 mph - N/A   Clear
3:50 PM 91.4 °F 94.0 °F 66.2 °F 43% 29.98 in 6.2 mi ESE 4.6 mph - N/A   Partly Cloudy
4:20 PM 91.4 °F 94.0 °F 66.2 °F 43% 29.95 in 6.2 mi ESE 4.6 mph - N/A   Partly Cloudy
4:50 PM 91.4 °F 94.0 °F 66.2 °F 43% 29.95 in 6.2 mi Variable 3.5 mph - N/A   Partly Cloudy
5:20 PM 91.4 °F 94.0 °F 66.2 °F 43% 29.95 in 6.2 mi Variable 3.5 mph - N/A   Partly Cloudy
5:50 PM 87.8 °F 90.4 °F 66.2 °F 49% 29.95 in - Variable 3.5 mph - N/A   Clear
6:00 PM 88 °F - 66 °F 38% 29.97 in 6 mi 3.5 mph - -  
6:20 PM 86.0 °F 88.2 °F 66.2 °F 51% 29.95 in - Variable 3.5 mph - N/A   Clear
6:50 PM 84.2 °F 85.6 °F 64.4 °F 51% 29.95 in - Calm Calm - N/A   Clear
7:20 PM 82.4 °F 83.9 °F 64.4 °F 54% 29.95 in - Calm Calm - N/A   Clear
7:50 PM 80.6 °F 81.8 °F 62.6 °F 54% 29.95 in - Calm Calm - N/A   Clear
8:20 PM 78.8 °F - 62.6 °F 57% 29.95 in - Calm Calm - N/A   Clear
8:50 PM 77.0 °F - 62.6 °F 61% 29.98 in - Calm Calm - N/A   Clear
9:00 PM 76 °F - 62 °F 54% 29.98 in 6 mi Calm Calm - -  
9:20 PM 75.2 °F - 62.6 °F 65% 29.98 in - Calm Calm - N/A   Clear
9:50 PM 75.2 °F - 62.6 °F 65% 29.98 in - Calm Calm - N/A   Clear
10:20 PM 75.2 °F - 62.6 °F 65% 29.98 in - Calm Calm - N/A   Clear